Change the Weather History Date:

Friday, December 14, 2012

  Actual Average Record
Temperature  
Mean Temperature 47 °F -  
Max Temperature 52 °F 56 °F 68 °F (1998)
Min Temperature 42 °F 34 °F 29 °F (2008)
Degree Days  
Heating Degree Days 18    
Moisture  
Dew Point 42 °F    
Average Humidity 83    
Maximum Humidity 100    
Minimum Humidity 48    
Precipitation  
Precipitation 0.07 in - - ()
Sea Level Pressure  
Sea Level Pressure 29.75 in    
Wind  
Wind Speed 8 mph (South)    
Max Wind Speed 23 mph    
Max Gust Speed 25 mph    
Visibility 10 miles    
Events Rain    
Averages and records for this station are not official NWS values.
T = Trace of Precipitation, MM = Missing Value Source: NWS Daily Summary

Daily Weather History Graph

Daily Weather History Graph

Search for Another Location

Airport or City:

Trip Planner

Search our weather history database for the weather conditions in past years. The results will help you decide how hot, cold, wet, or windy it might be!

Date:

Astronomy

Dec. 14, 2012 Rise Set
Actual Time 6:43 AM PST 4:26 PM PST
Civil Twilight 6:15 AM PST 4:55 PM PST
Nautical Twilight 5:42 AM PST 5:27 PM PST
Astronomical Twilight 5:11 AM PST 5:58 PM PST
Moon 7:53 AM PST (12/14) 6:22 PM PST (12/14)
Length of Visible Light 10h 40m
Length of Day
9h 42m
Waxing Crescent, 3% of the Moon is Illuminated
Dec 14
Waxing Crescent
Dec 19
First Quarter
Dec 28
Full
Jan 4
Last Quarter
Jan 11
New

Hourly Weather History & Observations

Time (PST) Temp. Windchill Dew Point Humidity Pressure Visibility Wind Dir Wind Speed Gust Speed Precip Events Conditions
12:48 AM 48.2 °F - 48.2 °F 100% 29.65 in 10.0 mi NNW 4.6 mph - N/A Rain Light Rain
12:53 AM 48.2 °F - 48.2 °F 100% 29.65 in 10.0 mi North 4.6 mph - N/A Rain Light Rain
12:58 AM 47.7 °F - 47.7 °F 100% 29.63 in 10.0 mi North 2.3 mph - 0.01 in Rain Light Rain
1:03 AM 48.2 °F - 48.2 °F 100% 29.65 in 10.0 mi NE 1.2 mph - N/A Rain Light Rain
1:08 AM 48.2 °F - 48.2 °F 100% 29.65 in 10.0 mi NE 6.9 mph - N/A Rain Light Rain
1:13 AM 48.2 °F - 46.4 °F 93% 29.65 in 10.0 mi NE 6.9 mph - N/A Rain Light Rain
1:23 AM 48.2 °F - 48.2 °F 100% 29.65 in 10.0 mi NE 10.4 mph - N/A   Light Drizzle
1:58 AM 47.3 °F - 47.3 °F 100% 29.61 in 10.0 mi NE 8.1 mph - 0.01 in Rain Light Rain
2:08 AM 48.2 °F - 48.2 °F 100% 29.63 in 10.0 mi ENE 6.9 mph - N/A Rain Light Rain
2:48 AM 46.4 °F 41.9 °F 46.4 °F 100% 29.61 in 10.0 mi ENE 9.2 mph - N/A Rain Light Rain
2:53 AM 46.4 °F 41.9 °F 46.4 °F 100% 29.61 in 10.0 mi ENE 9.2 mph - N/A Rain Light Rain
2:58 AM 46.9 °F - 46.8 °F 99% 29.60 in 10.0 mi ENE 8.1 mph - 0.01 in Rain Light Rain
3:58 AM 46.8 °F - 46.8 °F 100% 29.58 in 10.0 mi East 5.8 mph - 0.00 in   Light Drizzle
4:33 AM 46.4 °F 45.2 °F 46.4 °F 100% 29.60 in 10.0 mi SSW 3.5 mph - N/A Rain Light Rain
4:43 AM 46.4 °F 44.3 °F 46.4 °F 100% 29.60 in 10.0 mi SSW 4.6 mph - N/A Rain Light Rain
4:58 AM 46.6 °F - 46.6 °F 100% 29.60 in 10.0 mi South 5.8 mph - 0.00 in Rain Light Rain
5:58 AM 46.9 °F - 46.8 °F 99% 29.60 in 10.0 mi South 4.6 mph - 0.00 in Rain Light Rain
6:58 AM 46.4 °F 42.4 °F 46.4 °F 100% 29.62 in 10.0 mi South 8.1 mph - 0.00 in Rain Light Rain
7:32 AM 46.4 °F 41.5 °F 46.4 °F 100% 29.64 in 10.0 mi South 10.4 mph - N/A   Overcast
7:58 AM 46.9 °F - 46.9 °F 100% 29.65 in 10.0 mi South 9.2 mph - 0.00 in   Mostly Cloudy
8:58 AM 48.4 °F - 44.4 °F 86% 29.67 in 10.0 mi South 12.7 mph - N/A   Overcast
9:58 AM 50.7 °F - 43.9 °F 77% 29.68 in 10.0 mi SSW 12.7 mph - 0.01 in   Overcast
10:58 AM 52.5 °F - 42.4 °F 69% 29.70 in 10.0 mi South 11.5 mph - N/A   Mostly Cloudy
11:58 AM 52.2 °F - 41.9 °F 68% 29.69 in 10.0 mi South 17.3 mph - N/A   Overcast
12:55 PM 52.2 °F - 41.9 °F 68% 29.71 in 10.0 mi SSW 17.3 mph - N/A   Mostly Cloudy
1:55 PM 52.3 °F - 37.8 °F 58% 29.76 in 10.0 mi SSW 23.0 mph - N/A   Overcast
2:58 PM 51.8 °F - 36.0 °F 55% 29.76 in 10.0 mi SSW 20.7 mph - N/A   Mostly Cloudy
3:58 PM 50.4 °F - 31.5 °F 48% 29.79 in 10.0 mi South 20.7 mph 25.3 mph N/A   Clear
4:58 PM 48.9 °F - 30.9 °F 50% 29.82 in 10.0 mi South 18.4 mph - N/A   Partly Cloudy
5:58 PM 48.6 °F - 32.2 °F 53% 29.84 in 10.0 mi South 12.7 mph - N/A   Clear
6:58 PM 48.9 °F - 32.9 °F 54% 29.85 in 10.0 mi South 10.4 mph - N/A   Scattered Clouds
7:58 PM 49.1 °F - 33.4 °F 55% 29.86 in 10.0 mi SSE 12.7 mph - N/A   Scattered Clouds
8:58 PM 48.6 °F - 34.5 °F 58% 29.88 in 10.0 mi SSW 15.0 mph - N/A   Partly Cloudy
9:06 PM 48.2 °F - 35.6 °F 62% 29.89 in 10.0 mi SW 15.0 mph - N/A   Partly Cloudy
9:14 PM 46.4 °F 40.4 °F 37.4 °F 71% 29.89 in 10.0 mi SW 13.8 mph - N/A Rain Light Rain
9:27 PM 46.4 °F 40.7 °F 35.6 °F 66% 29.89 in 10.0 mi West 12.7 mph - N/A   Scattered Clouds
9:33 PM 46.4 °F 41.1 °F 35.6 °F 66% 29.89 in 10.0 mi WSW 11.5 mph - N/A Rain Light Rain
9:43 PM 46.4 °F 41.5 °F 35.6 °F 66% 29.90 in 10.0 mi SW 10.4 mph - N/A   Scattered Clouds
9:44 PM 46.4 °F 41.5 °F 35.6 °F 66% 29.90 in 10.0 mi SW 10.4 mph - N/A Rain Light Rain
9:54 PM 44.6 °F 39.2 °F 39.2 °F 81% 29.90 in 10.0 mi South 10.4 mph - N/A Rain Light Rain
9:58 PM 45.0 °F 40.1 °F 39.0 °F 80% 29.90 in 10.0 mi South 9.2 mph - 0.00 in Rain Light Rain
10:33 PM 42.8 °F 36.6 °F 41.0 °F 93% 29.91 in 9.0 mi SSE 11.5 mph - N/A Rain Light Rain
10:38 PM 42.8 °F 38.0 °F 41.0 °F 93% 29.91 in 8.0 mi SSE 8.1 mph - N/A Rain Light Rain
10:48 PM 42.8 °F 37.5 °F 41.0 °F 93% 29.90 in 10.0 mi SE 9.2 mph - N/A Rain Light Rain
10:53 PM 42.8 °F 38.0 °F 41.0 °F 93% 29.90 in 10.0 mi SE 8.1 mph - N/A Rain Light Rain
10:58 PM 43.7 °F 39.7 °F 40.1 °F 87% 29.90 in 10.0 mi SE 6.9 mph - 0.03 in Rain Light Rain
11:08 PM 44.6 °F 43.1 °F 41.0 °F 87% 29.90 in 10.0 mi South 3.5 mph - N/A   Mostly Cloudy
11:13 PM 44.6 °F 41.4 °F 41.0 °F 87% 29.90 in 10.0 mi South 5.8 mph - N/A   Scattered Clouds
11:58 PM 44.8 °F 39.0 °F 38.1 °F 77% 29.89 in 10.0 mi South 11.5 mph - 0.00 in   Overcast